EW7351 Weather Reports


Display with metric or nautical units.
time (UTC)temp
F
wind
direction
speed
MPH
gust
MPH
rain 1hr
in
rain 24hr
in
rain mn
in
humidity
%
barometer
mb
20260902082803 82 139 0.0 0.0 0.00 0.00 0.00 66 1013.8
20260902082236 82 154 0.0 1.0 0.00 0.00 0.00 66 1013.7
20260902081735 82 154 0.0 1.0 0.00 0.00 0.00 66 1013.8
20260902081211 82 154 0.0 0.0 0.00 0.00 0.00 66 1013.8
20260902080650 82 188 0.0 1.0 0.00 0.00 0.00 65 1013.8
20260902080150 82 264 0.0 1.0 0.00 0.00 0.00 65 1013.8
20260902075648 82 153 0.0 2.0 0.00 0.00 0.00 65 1013.8
20260902075143 83 221 0.0 3.0 0.00 0.00 0.00 65 1013.9
20260902074857 83 134 0.0 3.0 0.00 0.00 0.00 65 1013.8
20260902074125 83 129 0.0 2.0 0.00 0.00 0.00 65 1013.8
20260902073621 83 129 0.0 3.0 0.00 0.00 0.00 64 1013.8
20260902073124 83 120 0.0 4.0 0.00 0.00 0.00 64 1013.8
20260902072604 83 129 0.0 3.0 0.00 0.00 0.00 64 1013.8
20260902072100 83 114 1.0 4.0 0.00 0.00 0.00 64 1013.9
20260902071601 83 162 1.0 4.0 0.00 0.00 0.00 63 1013.9
20260902071058 83 132 1.0 5.0 0.00 0.00 0.00 63 1013.9
20260902070559 83 123 1.0 5.0 0.00 0.00 0.00 63 1013.9
20260902070100 84 131 1.0 5.0 0.00 0.00 0.00 63 1013.9
20260902065537 84 158 1.0 5.0 0.00 0.00 0.00 62 1014.0
20260902065037 84 125 1.0 5.0 0.00 0.00 0.00 62 1014.0
20260902064538 84 248 2.0 4.0 0.00 0.00 0.00 62 1014.0
20260902064020 84 191 2.0 6.0 0.00 0.00 0.00 62 1014.0
20260902063715 84 110 2.0 6.0 0.00 0.00 0.00 62 1014.0
20260902062921 84 207 1.0 6.0 0.00 0.00 0.00 62 1014.0
20260902062414 84 216 2.0 6.0 0.00 0.00 0.00 61 1013.9
20260902061912 84 144 2.0 6.0 0.00 0.00 0.00 61 1013.9
20260902061347 85 103 2.0 6.0 0.00 0.00 0.00 61 1013.9
20260902060821 85 138 1.0 5.0 0.00 0.00 0.00 61 1013.9
20260902060519 85 141 1.0 4.0 0.00 0.00 0.00 61 1013.9
20260902055729 85 245 2.0 6.0 0.00 0.00 0.00 61 1013.9
20260902055229 85 113 2.0 5.0 0.00 0.00 0.00 61 1013.9
20260902054949 85 114 2.0 5.0 0.00 0.00 0.00 60 1013.9
20260902054223 85 233 2.0 5.0 0.00 0.00 0.00 60 1013.9
20260902053715 85 150 2.0 5.0 0.00 0.00 0.00 60 1013.9
20260902053212 85 124 2.0 5.0 0.00 0.00 0.00 61 1013.9
20260902052709 85 238 2.0 5.0 0.00 0.00 0.00 60 1013.9
20260902052407 86 124 2.0 5.0 0.00 0.00 0.00 60 1013.8
20260902051617 86 139 2.0 7.0 0.00 0.00 0.00 60 1013.8
20260902051313 86 105 2.0 7.0 0.00 0.00 0.00 59 1013.8
20260902050525 86 203 3.0 8.0 0.00 0.00 0.00 58 1013.8
20260902045959 86 129 3.0 8.0 0.00 0.00 0.00 58 1013.8
20260902045431 86 117 3.0 8.0 0.00 0.00 0.00 57 1013.9
20260902044927 87 141 3.0 8.0 0.00 0.00 0.00 57 1013.8
20260902044425 87 156 3.0 8.0 0.00 0.00 0.00 57 1013.8
20260902043920 87 117 3.0 8.0 0.00 0.00 0.00 56 1013.7
20260902043422 87 234 3.0 7.0 0.00 0.00 0.00 56 1013.7
20260902042916 87 113 3.0 7.0 0.00 0.00 0.00 56 1013.7
20260902042413 87 208 3.0 7.0 0.00 0.00 0.00 55 1013.7
20260902041847 88 219 4.0 8.0 0.00 0.00 0.00 55 1013.6
20260902041546 88 137 5.0 10.0 0.00 0.00 0.00 54 1013.6
20260902040756 88 220 4.0 12.0 0.00 0.00 0.00 54 1013.6
20260902040719 88 156 5.0 10.0 0.00 0.00 0.00 54 1013.6
20260902035952 88 219 5.0 12.0 0.00 0.00 0.00 54 1013.5
20260902035222 89 146 5.0 11.0 0.00 0.00 0.00 54 1013.4
20260902034715 89 129 5.0 12.0 0.00 0.00 0.00 53 1013.4
20260902034146 89 139 4.0 12.0 0.00 0.00 0.00 51 1013.4
20260902033644 89 131 2.0 9.0 0.00 0.00 0.00 50 1013.3
20260902033116 88 143 0.0 4.0 0.00 0.00 0.00 52 1013.3
20260902032615 89 123 0.0 1.0 0.00 0.00 0.00 51 1013.2
20260902032111 89 123 0.0 1.0 0.00 0.00 0.00 50 1013.0
20260902031608 89 123 0.0 1.0 0.00 0.00 0.00 50 1013.0
20260902031320 90 123 0.0 1.0 0.00 0.00 0.00 49 1012.9
20260902030558 90 123 0.0 3.0 0.00 0.00 0.00 48 1012.9
20260902030253 90 123 0.0 3.0 0.00 0.00 0.00 48 1012.9
20260902025750 91 123 1.0 4.0 0.00 0.00 0.00 47 1012.7
20260902025000 91 113 1.0 4.0 0.00 0.00 0.00 47 1012.7
20260902024456 91 125 1.0 5.0 0.00 0.00 0.00 47 1012.7
20260902023954 91 153 1.0 5.0 0.00 0.00 0.00 46 1012.6
20260902023453 91 176 1.0 5.0 0.00 0.00 0.00 46 1012.5
20260902022939 91 110 1.0 5.0 0.00 0.00 0.00 45 1012.5
20260902022442 92 143 1.0 4.0 0.00 0.00 0.00 45 1012.4
20260902021921 92 136 2.0 5.0 0.00 0.00 0.00 45 1012.3
20260902021416 92 109 2.0 5.0 0.00 0.00 0.00 44 1012.2
20260902020915 92 139 1.0 4.0 0.00 0.00 0.00 45 1012.1
20260902020414 91 153 1.0 4.0 0.00 0.00 0.00 45 1012.1
20260902020141 91 118 0.0 3.0 0.00 0.00 0.00 46 1012.0
20260902015350 91 124 0.0 3.0 0.00 0.00 0.00 47 1011.9
20260902014846 91 128 0.0 2.0 0.00 0.00 0.00 47 1011.7
20260902014345 91 131 0.0 1.0 0.00 0.00 0.00 47 1011.7
20260902013834 91 131 0.0 1.0 0.00 0.00 0.00 46 1011.6
20260902013333 92 131 0.0 3.0 0.00 0.00 0.00 46 1011.6
20260902012805 92 131 0.0 3.0 0.00 0.00 0.00 46 1011.5
20260902012522 92 127 1.0 3.0 0.00 0.00 0.00 45 1011.5
20260902012030 92 129 1.0 3.0 0.00 0.00 0.00 45 1011.5
20260902011237 92 125 1.0 4.0 0.00 0.00 0.00 44 1011.5
20260902010739 93 124 2.0 6.0 0.00 0.00 0.00 43 1011.4
20260902010213 93 122 2.0 6.0 0.00 0.00 0.00 43 1011.4
20260902005711 94 129 1.0 6.0 0.00 0.00 0.00 41 1011.3
20260902005146 94 138 0.0 1.0 0.00 0.00 0.00 39 1011.3
20260902004647 95 129 0.0 2.0 0.00 0.00 0.00 39 1011.3
20260902004126 95 115 0.0 2.0 0.00 0.00 0.00 38 1011.3
20260902003627 96 125 0.0 2.0 0.00 0.00 0.00 37 1011.3
20260902003123 96 111 0.0 2.0 0.00 0.00 0.00 37 1011.4
20260902002603 96 115 0.0 1.0 0.00 0.00 0.00 37 1011.4
20260902002036 97 115 0.0 2.0 0.00 0.00 0.00 37 1011.3
20260902001519 96 115 0.0 5.0 0.00 0.00 0.00 36 1011.4
20260902001021 97 222 0.0 5.0 0.00 0.00 0.00 36 1011.5
20260902000501 97 139 1.0 3.0 0.00 0.00 0.00 36 1011.5
20260901235940 97 134 1.0 6.0 0.00 0.00 0.00 35 1011.5
20260901235412 97 128 2.0 6.0 0.00 0.00 0.00 35 1011.5
20260901234915 97 136 1.0 5.0 0.00 0.00 0.00 36 1011.6
20260901234358 97 103 1.0 7.0 0.00 0.00 0.00 36 1011.6
20260901233900 97 105 2.0 7.0 0.00 0.00 0.00 35 1011.6
20260901233332 97 122 3.0 9.0 0.00 0.00 0.00 35 1011.7
20260901232832 97 135 3.0 9.0 0.00 0.00 0.00 36 1011.9
20260901232306 97 91 2.0 8.0 0.00 0.00 0.00 35 1011.9
20260901231802 97 97 2.0 8.0 0.00 0.00 0.00 35 1011.9
20260901231301 97 94 1.0 6.0 0.00 0.00 0.00 36 1011.9
20260901230801 97 129 1.0 4.0 0.00 0.00 0.00 37 1011.9
20260901230747 97 124 1.0 3.0 0.00 0.00 0.00 36 1011.9
20260901225741 97 153 1.0 5.0 0.00 0.00 0.00 36 1011.9
20260901225214 97 123 2.0 6.0 0.00 0.00 0.00 36 1012.0
20260901224656 97 262 1.0 6.0 0.00 0.00 0.00 35 1011.9
20260901224356 98 162 1.0 4.0 0.00 0.00 0.00 35 1011.9
20260901223607 97 158 1.0 5.0 0.00 0.00 0.00 36 1012.0
20260901223106 97 146 1.0 4.0 0.00 0.00 0.00 37 1012.0
20260901222758 97 130 1.0 5.0 0.00 0.00 0.00 37 1012.0
20260901222015 97 129 1.0 7.0 0.00 0.00 0.00 37 1012.0
20260901221451 97 129 1.0 7.0 0.00 0.00 0.00 37 1012.0
20260901220948 97 225 2.0 6.0 0.00 0.00 0.00 36 1012.0
20260901220446 97 160 2.0 7.0 0.00 0.00 0.00 36 1012.1
20260901215944 97 139 1.0 6.0 0.00 0.00 0.00 36 1012.1
20260901215438 97 145 2.0 6.0 0.00 0.00 0.00 36 1012.1
20260901214932 97 160 3.0 7.0 0.00 0.00 0.00 35 1012.2
20260901214412 98 62 3.0 7.0 0.00 0.00 0.00 34 1012.3
20260901213845 98 226 4.0 10.0 0.00 0.00 0.00 34 1012.2
20260901213320 99 209 3.0 10.0 0.00 0.00 0.00 33 1012.3
20260901213244 99 113 2.0 6.0 0.00 0.00 0.00 33 1012.3
20260901212510 100 137 3.0 9.0 0.00 0.00 0.00 32 1012.3
20260901211750 101 143 3.0 11.0 0.00 0.00 0.00 31 1012.4
20260901211250 101 332 1.0 11.0 0.00 0.00 0.00 32 1012.4
20260901210730 101 139 2.0 9.0 0.00 0.00 0.00 32 1012.5
20260901210203 100 130 3.0 9.0 0.00 0.00 0.00 34 1012.5
20260901205924 100 122 4.0 9.0 0.00 0.00 0.00 33 1012.5
20260901205156 100 213 2.0 9.0 0.00 0.00 0.00 33 1012.5
20260901204632 101 134 1.0 5.0 0.00 0.00 0.00 33 1012.6
20260901204105 100 123 0.0 3.0 0.00 0.00 0.00 34 1012.7
20260901203823 100 113 1.0 5.0 0.00 0.00 0.00 33 1012.7
20260901203058 101 350 1.0 5.0 0.00 0.00 0.00 32 1012.8
20260901202529 100 124 1.0 5.0 0.00 0.00 0.00 34 1012.8
20260901202006 101 139 1.0 5.0 0.00 0.00 0.00 33 1012.9
20260901201501 101 321 1.0 5.0 0.00 0.00 0.00 33 1013.0
20260901200958 101 340 1.0 5.0 0.00 0.00 0.00 33 1013.0
20260901200453 100 228 2.0 7.0 0.00 0.00 0.00 35 1013.1
20260901200212 101 110 2.0 7.0 0.00 0.00 0.00 34 1013.1
20260901195451 100 120 1.0 5.0 0.00 0.00 0.00 36 1013.2
20260901194924 100 136 0.0 5.0 0.00 0.00 0.00 35 1013.2
20260901194644 100 142 0.0 4.0 0.00 0.00 0.00 36 1013.3
20260901193920 100 85 2.0 9.0 0.00 0.00 0.00 35 1013.4
20260901193349 99 121 2.0 9.0 0.00 0.00 0.00 37 1013.5
20260901193048 99 191 1.0 8.0 0.00 0.00 0.00 36 1013.5
20260901192329 100 39 2.0 9.0 0.00 0.00 0.00 35 1013.6
20260901191828 101 127 1.0 9.0 0.00 0.00 0.00 36 1013.7
20260901191259 100 124 1.0 9.0 0.00 0.00 0.00 37 1013.8
20260901191002 100 145 2.0 9.0 0.00 0.00 0.00 36 1013.9
20260901190233 100 249 1.0 5.0 0.00 0.00 0.00 38 1014.0
20260901185723 99 109 1.0 5.0 0.00 0.00 0.00 37 1013.9
20260901185158 99 347 2.0 5.0 0.00 0.00 0.00 36 1014.1
20260901184628 99 133 2.0 7.0 0.00 0.00 0.00 37 1014.2
20260901184355 99 191 2.0 7.0 0.00 0.00 0.00 37 1014.3
20260901183623 99 165 1.0 5.0 0.00 0.00 0.00 39 1014.4
20260901183344 98 91 2.0 8.0 0.00 0.00 0.00 37 1014.5
20260901182556 97 110 3.0 8.0 0.00 0.00 0.00 39 1014.5
20260901182031 97 129 4.0 10.0 0.00 0.00 0.00 39 1014.8
20260901181508 97 288 4.0 10.0 0.00 0.00 0.00 39 1014.9
20260901180957 97 170 3.0 9.0 0.00 0.00 0.00 39 1014.9
20260901180433 98 107 1.0 9.0 0.00 0.00 0.00 38 1015.0
20260901175903 98 34 2.0 6.0 0.00 0.00 0.00 38 1015.1
20260901175402 98 135 2.0 6.0 0.00 0.00 0.00 37 1015.2
20260901174833 98 146 1.0 5.0 0.00 0.00 0.00 36 1015.3
20260901174331 98 56 1.0 5.0 0.00 0.00 0.00 38 1015.4
20260901173806 98 23 2.0 7.0 0.00 0.00 0.00 37 1015.5
20260901173237 98 148 2.0 7.0 0.00 0.00 0.00 36 1015.5
20260901172712 98 248 2.0 9.0 0.00 0.00 0.00 38 1015.6
20260901172209 98 146 2.0 9.0 0.00 0.00 0.00 39 1015.7
20260901171931 98 318 1.0 7.0 0.00 0.00 0.00 40 1015.7
20260901171206 98 64 1.0 7.0 0.00 0.00 0.00 40 1015.8
20260901170701 97 131 2.0 7.0 0.00 0.00 0.00 39 1015.8
20260901170200 96 92 3.0 7.0 0.00 0.00 0.00 40 1015.8
20260901165631 96 134 2.0 8.0 0.00 0.00 0.00 43 1015.8
20260901165349 96 219 1.0 8.0 0.00 0.00 0.00 42 1015.9
20260901164605 96 153 2.0 8.0 0.00 0.00 0.00 42 1015.9
20260901164037 96 240 1.0 7.0 0.00 0.00 0.00 40 1015.9
20260901163512 96 208 1.0 4.0 0.00 0.00 0.00 44 1016.0
20260901162943 96 116 0.0 4.0 0.00 0.00 0.00 45 1016.0
20260901162441 96 153 1.0 6.0 0.00 0.00 0.00 46 1016.1
20260901161916 95 4 1.0 6.0 0.00 0.00 0.00 45 1016.0
20260901161350 95 167 2.0 6.0 0.00 0.00 0.00 46 1016.1
20260901160822 94 224 2.0 6.0 0.00 0.00 0.00 46 1016.1
20260901160317 94 162 1.0 5.0 0.00 0.00 0.00 46 1016.0
20260901155811 94 234 1.0 5.0 0.00 0.00 0.00 48 1016.0
20260901155309 94 127 1.0 4.0 0.00 0.00 0.00 47 1016.0
20260901154741 94 120 1.0 4.0 0.00 0.00 0.00 46 1016.0
20260901154239 94 155 0.0 4.0 0.00 0.00 0.00 46 1016.0
20260901153711 93 122 1.0 5.0 0.00 0.00 0.00 49 1015.9
20260901153208 92 223 1.0 5.0 0.00 0.00 0.00 50 1015.9
20260901152707 92 10 1.0 5.0 0.00 0.00 0.00 51 1015.9
20260901152139 92 147 1.0 5.0 0.00 0.00 0.00 50 1015.9
20260901151638 92 255 1.0 5.0 0.00 0.00 0.00 51 1015.9
20260901151129 91 253 1.0 7.0 0.00 0.00 0.00 52 1015.9
20260901150626 91 240 1.0 6.0 0.00 0.00 0.00 52 1016.0
20260901150100 91 260 0.0 4.0 0.00 0.00 0.00 54 1016.1
20260901145557 90 134 1.0 5.0 0.00 0.00 0.00 54 1016.1
20260901145056 89 103 1.0 5.0 0.00 0.00 0.00 54 1016.1
20260901144551 90 203 1.0 4.0 0.00 0.00 0.00 54 1016.2
20260901144050 89 159 0.0 3.0 0.00 0.00 0.00 55 1016.2
20260901143521 89 219 0.0 3.0 0.00 0.00 0.00 55 1016.2
20260901143022 89 131 0.0 4.0 0.00 0.00 0.00 56 1016.3
20260901142451 88 229 1.0 4.0 0.00 0.00 0.00 58 1016.2
20260901141950 87 153 1.0 3.0 0.00 0.00 0.00 59 1016.1
20260901141445 87 159 1.0 4.0 0.00 0.00 0.00 59 1016.1
20260901140942 87 133 0.0 4.0 0.00 0.00 0.00 59 1016.1
20260901140419 86 164 1.0 4.0 0.00 0.00 0.00 61 1016.2
20260901135914 85 233 1.0 4.0 0.00 0.00 0.00 61 1016.2
20260901135411 85 130 1.0 4.0 0.00 0.00 0.00 62 1016.2
20260901134843 85 223 1.0 4.0 0.00 0.00 0.00 62 1016.3
20260901134342 84 130 1.0 3.0 0.00 0.00 0.00 63 1016.3
20260901133812 84 167 1.0 3.0 0.00 0.00 0.00 64 1016.2
20260901133313 83 130 1.0 4.0 0.00 0.00 0.00 64 1016.2
20260901132743 83 191 1.0 3.0 0.00 0.00 0.00 66 1016.2
20260901132432 82 217 1.0 3.0 0.00 0.00 0.00 66 1016.2
20260901132128 82 131 0.0 5.0 0.00 0.00 0.00 66 1016.2
20260901131116 82 130 0.0 3.0 0.00 0.00 0.00 67 1016.1
20260901130546 81 101 0.0 3.0 0.00 0.00 0.00 68 1016.1
20260901130045 81 162 0.0 3.0 0.00 0.00 0.00 68 1016.0
20260901130029 81 157 0.0 4.0 0.00 0.00 0.00 69 1015.9
20260901125044 80 178 1.0 4.0 0.00 0.00 0.00 69 1015.9
20260901124541 80 112 0.0 2.0 0.00 0.00 0.00 69 1015.8
20260901124013 80 116 0.0 2.0 0.00 0.00 0.00 70 1015.8
20260901123515 80 115 0.0 2.0 0.00 0.00 0.00 70 1015.7
20260901122948 79 137 0.0 1.0 0.00 0.00 0.00 70 1015.6
20260901122423 79 141 0.0 2.0 0.00 0.00 0.00 71 1015.5
20260901121921 79 127 0.0 2.0 0.00 0.00 0.00 71 1015.4
20260901121420 78 129 0.0 1.0 0.00 0.00 0.00 71 1015.4
20260901120916 78 129 0.0 1.0 0.00 0.00 0.00 71 1015.3
20260901120417 78 130 0.0 0.0 0.00 0.00 0.00 70 1015.2
20260901115853 79 130 0.0 0.0 0.00 0.00 0.00 69 1015.2
20260901115327 79 130 0.0 0.0 0.00 0.00 0.00 69 1015.0
20260901114828 79 130 0.0 0.0 0.00 0.00 0.00 68 1015.0
20260901114307 79 129 0.0 1.0 0.00 0.00 0.00 68 1015.0
20260901113805 80 129 0.0 2.0 0.00 0.00 0.00 67 1015.0
20260901113302 80 159 0.0 2.0 0.00 0.00 0.00 67 1015.0
20260901112803 80 111 0.0 1.0 0.00 0.00 0.00 67 1014.9
20260901112518 80 111 0.0 1.0 0.00 0.00 0.00 67 1014.9
20260901111749 80 276 0.0 0.0 0.00 0.00 0.00 67 1014.8
20260901111220 80 276 0.0 0.0 0.00 0.00 0.00 66 1014.8
20260901110703 80 139 0.0 2.0 0.00 0.00 0.00 65 1014.8
20260901110139 80 158 0.0 2.0 0.00 0.00 0.00 65 1014.8
20260901105638 80 167 0.0 1.0 0.00 0.00 0.00 65 1014.8
20260901105138 81 132 0.0 1.0 0.00 0.00 0.00 64 1014.7
20260901104617 81 165 0.0 2.0 0.00 0.00 0.00 64 1014.7
20260901104046 81 165 0.0 4.0 0.00 0.00 0.00 63 1014.7
20260901103546 81 183 1.0 4.0 0.00 0.00 0.00 63 1014.8
20260901103021 82 293 1.0 5.0 0.00 0.00 0.00 62 1014.8
20260901102457 82 196 1.0 4.0 0.00 0.00 0.00 62 1014.8
20260901101931 82 239 0.0 4.0 0.00 0.00 0.00 62 1014.8
20260901101405 82 158 0.0 3.0 0.00 0.00 0.00 62 1014.8
20260901100905 82 225 1.0 6.0 0.00 0.00 0.00 62 1014.8
20260901100338 82 117 1.0 7.0 0.00 0.00 0.00 62 1014.8
20260901100055 82 127 1.0 7.0 0.00 0.00 0.00 62 1014.8
20260901095317 82 158 0.0 3.0 0.00 0.00 0.00 62 1014.9
20260901094758 83 156 1.0 3.0 0.00 0.00 0.00 62 1014.9
20260901094250 83 162 1.0 6.0 0.00 0.00 0.00 61 1014.9
20260901093748 83 229 1.0 6.0 0.00 0.00 0.00 61 1014.9
20260901093223 83 206 0.0 4.0 0.00 0.00 0.00 61 1015.0
20260901092945 83 236 1.0 4.0 0.00 0.00 0.00 61 1014.9
20260901092216 83 286 1.0 4.0 0.00 0.00 0.00 61 1014.9
20260901091911 83 146 1.0 4.0 0.00 0.00 0.00 60 1015.0
20260901091133 83 130 1.0 4.0 0.00 0.00 0.00 60 1015.0
20260901090632 83 124 1.0 3.0 0.00 0.00 0.00 59 1014.9
20260901090132 83 111 0.0 3.0 0.00 0.00 0.00 58 1014.8
20260901085852 83 167 0.0 3.0 0.00 0.00 0.00 58 1014.7
20260901085107 83 111 0.0 3.0 0.00 0.00 0.00 57 1014.7
20260901084606 84 153 1.0 3.0 0.00 0.00 0.00 56 1014.7
20260901084326 84 121 1.0 3.0 0.00 0.00 0.00 56 1014.7
20260901083600 84 98 2.0 5.0 0.00 0.00 0.00 55 1014.6